GFSNIL_prec_precacc6_102.txt.gz
Total_Precipitation_Accumulation
0.00 0.00 0.00 0.00 0.01 0.02 0.05 0.03 0.01 0.01 0.01 0.02 0.03 0.02 0.06 0.12 0.10 0.08 0.07 0.06 0.05 0.05
0.00 0.00 0.00 0.00 0.00 0.00 0.01 0.01 0.00 0.00 0.00 0.00 0.00 0.01 0.02 0.04 0.05 0.06 0.05 0.05 0.07 0.08
0.00 0.00 0.00 0.00 0.00 0.00 0.00 0.00 0.01 0.00 0.00 0.00 0.00 0.00 0.01 0.01 0.02 0.04 0.04 0.05 0.04 0.06
0.00 0.00 0.00 0.00 0.00 0.00 0.00 0.00 0.00 0.00 0.00 0.00 0.00 0.00 0.00 0.00 0.00 0.00 0.01 0.01 0.02 0.01
0.00 0.00 0.00 0.00 0.00 0.00 0.00 0.00 0.00 0.00 0.00 0.00 0.00 0.00 0.00 0.00 0.00 0.00 0.00 0.00 0.02 0.02
0.00 0.00 0.00 0.00 0.00 0.00 0.00 0.00 0.00 0.00 0.00 0.00 0.00 0.00 0.00 0.00 0.00 0.00 0.00 0.00 0.02 0.03
0.00 0.00 0.00 0.00 0.00 0.00 0.00 0.00 0.00 0.00 0.00 0.00 0.00 0.00 0.00 0.00 0.00 0.01 0.03 0.06 0.07 0.05
0.00 0.00 0.00 0.00 0.00 0.00 0.00 0.00 0.00 0.00 0.00 0.00 0.01 0.00 0.00 0.01 0.04 0.04 0.05 0.10 0.17 0.22
0.00 0.00 0.00 0.00 0.00 0.00 0.00 0.00 0.00 0.00 0.00 0.00 0.00 0.01 0.01 0.02 0.04 0.08 0.11 0.15 0.16 0.16
0.00 0.00 0.00 0.00 0.00 0.00 0.00 0.00 0.00 0.00 0.01 0.01 0.02 0.06 0.04 0.08 0.05 0.08 0.11 0.10 0.09 0.07
0.00 0.00 0.00 0.00 0.00 0.00 0.01 0.01 0.01 0.02 0.03 0.05 0.09 0.10 0.07 0.07 0.03 0.03 0.05 0.05 0.04 0.04
0.00 0.00 0.00 0.00 0.00 0.02 0.03 0.04 0.04 0.06 0.07 0.07 0.07 0.11 0.06 0.05 0.01 0.02 0.03 0.02 0.02 0.02
0.00 0.00 0.00 0.00 0.01 0.03 0.03 0.04 0.06 0.07 0.06 0.08 0.04 0.09 0.05 0.04 0.01 0.02 0.01 0.00 0.01 0.03
0.00 0.00 0.01 0.01 0.02 0.04 0.05 0.04 0.05 0.04 0.03 0.02 0.03 0.06 0.06 0.03 0.01 0.00 0.00 0.00 0.00 0.00

GFSNIL_prec_precacc6_105.txt.gz
Total_Precipitation_Accumulation
0.00 0.00 0.00 0.01 0.02 0.04 0.11 0.16 0.18 0.12 0.10 0.11 0.09 0.06 0.07 0.08 0.08 0.06 0.05 0.07 0.06 0.06
0.00 0.00 0.00 0.00 0.00 0.00 0.01 0.03 0.05 0.06 0.05 0.04 0.04 0.02 0.01 0.01 0.04 0.03 0.02 0.03 0.04 0.05
0.00 0.00 0.00 0.00 0.00 0.00 0.00 0.00 0.01 0.01 0.00 0.00 0.00 0.00 0.00 0.00 0.01 0.02 0.01 0.02 0.03 0.04
0.00 0.00 0.00 0.00 0.00 0.00 0.00 0.00 0.00 0.00 0.00 0.00 0.00 0.00 0.00 0.00 0.00 0.00 0.00 0.01 0.02 0.01
0.00 0.00 0.00 0.00 0.00 0.00 0.00 0.00 0.00 0.00 0.00 0.00 0.00 0.00 0.00 0.00 0.00 0.00 0.00 0.00 0.01 0.01
0.00 0.00 0.00 0.00 0.00 0.00 0.00 0.00 0.00 0.00 0.00 0.00 0.00 0.00 0.00 0.00 0.00 0.00 0.00 0.00 0.03 0.05
0.00 0.00 0.00 0.00 0.00 0.00 0.00 0.00 0.00 0.00 0.00 0.00 0.00 0.00 0.00 0.00 0.01 0.03 0.06 0.08 0.08 0.04
0.00 0.00 0.00 0.00 0.00 0.00 0.00 0.00 0.00 0.00 0.00 0.01 0.01 0.00 0.00 0.01 0.02 0.03 0.03 0.05 0.07 0.11
0.00 0.00 0.00 0.00 0.00 0.00 0.00 0.00 0.00 0.00 0.00 0.00 0.00 0.00 0.01 0.01 0.01 0.01 0.04 0.09 0.11 0.13
0.00 0.00 0.00 0.00 0.00 0.00 0.00 0.00 0.00 0.01 0.01 0.01 0.01 0.03 0.02 0.03 0.02 0.06 0.10 0.11 0.11 0.13
0.00 0.00 0.00 0.00 0.00 0.00 0.00 0.01 0.01 0.01 0.02 0.01 0.04 0.06 0.04 0.06 0.03 0.06 0.09 0.10 0.13 0.14
0.00 0.00 0.00 0.00 0.00 0.01 0.02 0.03 0.02 0.04 0.04 0.05 0.06 0.12 0.07 0.06 0.02 0.06 0.08 0.11 0.14 0.19
0.00 0.00 0.00 0.01 0.02 0.03 0.03 0.04 0.06 0.08 0.09 0.11 0.06 0.14 0.09 0.07 0.02 0.06 0.12 0.15 0.15 0.12
0.01 0.00 0.01 0.03 0.04 0.05 0.06 0.07 0.08 0.07 0.06 0.05 0.06 0.12 0.10 0.06 0.02 0.02 0.03 0.01 0.00 0.00

GFSNIL_prec_precacc6_108.txt.gz
Total_Precipitation_Accumulation
0.00 0.00 0.00 0.01 0.04 0.09 0.20 0.44 0.48 0.39 0.19 0.16 0.15 0.15 0.13 0.14 0.13 0.08 0.05 0.04 0.03 0.02
0.00 0.00 0.00 0.00 0.02 0.11 0.08 0.20 0.33 0.40 0.35 0.24 0.18 0.13 0.10 0.08 0.06 0.06 0.03 0.02 0.03 0.02
0.00 0.00 0.00 0.00 0.00 0.03 0.04 0.09 0.11 0.27 0.30 0.26 0.18 0.10 0.07 0.04 0.03 0.03 0.01 0.00 0.00 0.00
0.00 0.00 0.00 0.00 0.00 0.00 0.00 0.02 0.04 0.07 0.23 0.22 0.13 0.06 0.03 0.02 0.01 0.00 0.00 0.00 0.00 0.00
0.00 0.00 0.00 0.00 0.00 0.00 0.00 0.00 0.00 0.00 0.04 0.05 0.01 0.00 0.00 0.00 0.00 0.00 0.00 0.00 0.00 0.00
0.00 0.00 0.00 0.00 0.00 0.00 0.00 0.00 0.00 0.00 0.00 0.00 0.00 0.00 0.00 0.00 0.00 0.00 0.00 0.00 0.02 0.03
0.00 0.00 0.00 0.00 0.00 0.00 0.00 0.00 0.00 0.00 0.00 0.00 0.00 0.00 0.00 0.00 0.00 0.02 0.03 0.03 0.02 0.01
0.00 0.00 0.00 0.00 0.00 0.00 0.00 0.00 0.00 0.00 0.00 0.00 0.00 0.00 0.00 0.00 0.01 0.02 0.00 0.00 0.00 0.01
0.00 0.00 0.00 0.00 0.00 0.00 0.00 0.00 0.00 0.00 0.00 0.00 0.00 0.01 0.01 0.01 0.01 0.01 0.01 0.02 0.02 0.04
0.00 0.00 0.00 0.00 0.00 0.00 0.00 0.00 0.00 0.01 0.01 0.01 0.01 0.03 0.02 0.02 0.01 0.03 0.04 0.06 0.08 0.13
0.00 0.00 0.00 0.00 0.00 0.00 0.00 0.01 0.01 0.02 0.02 0.01 0.03 0.06 0.04 0.05 0.02 0.06 0.09 0.10 0.12 0.16
0.00 0.00 0.00 0.00 0.01 0.02 0.02 0.03 0.02 0.04 0.04 0.03 0.05 0.10 0.06 0.05 0.01 0.06 0.10 0.16 0.24 0.29
0.00 0.00 0.00 0.01 0.02 0.03 0.03 0.04 0.05 0.07 0.08 0.09 0.05 0.12 0.07 0.06 0.02 0.09 0.19 0.25 0.29 0.28
0.03 0.01 0.01 0.03 0.04 0.05 0.06 0.07 0.07 0.07 0.06 0.05 0.08 0.14 0.11 0.07 0.02 0.04 0.07 0.09 0.08 0.04

GFSNIL_prec_precacc6_111.txt.gz
Total_Precipitation_Accumulation
0.00 0.00 0.00 0.00 0.04 0.13 0.25 0.69 0.64 0.48 0.22 0.16 0.19 0.22 0.22 0.26 0.24 0.19 0.17 0.18 0.09 0.05
0.00 0.00 0.00 0.00 0.02 0.17 0.25 0.41 0.53 0.60 0.50 0.35 0.30 0.32 0.34 0.34 0.38 0.32 0.26 0.21 0.17 0.11
0.00 0.00 0.00 0.00 0.00 0.05 0.12 0.26 0.36 0.52 0.54 0.49 0.42 0.37 0.34 0.30 0.30 0.32 0.25 0.16 0.10 0.06
0.00 0.00 0.00 0.00 0.00 0.00 0.02 0.13 0.28 0.38 0.53 0.49 0.35 0.31 0.32 0.26 0.17 0.14 0.16 0.09 0.04 0.02
0.00 0.00 0.00 0.00 0.00 0.00 0.00 0.02 0.10 0.19 0.36 0.47 0.38 0.23 0.15 0.14 0.11 0.08 0.06 0.04 0.02 0.00
0.00 0.00 0.00 0.00 0.00 0.00 0.00 0.00 0.00 0.01 0.06 0.15 0.20 0.22 0.09 0.04 0.01 0.00 0.00 0.01 0.01 0.00
0.00 0.00 0.00 0.00 0.00 0.00 0.00 0.00 0.00 0.00 0.01 0.01 0.01 0.04 0.02 0.00 0.00 0.00 0.01 0.00 0.00 0.00
0.00 0.00 0.00 0.00 0.00 0.00 0.00 0.00 0.00 0.00 0.00 0.00 0.00 0.00 0.00 0.00 0.00 0.00 0.00 0.00 0.00 0.00
0.00 0.00 0.00 0.00 0.00 0.00 0.00 0.00 0.00 0.00 0.00 0.00 0.00 0.00 0.00 0.00 0.00 0.00 0.00 0.01 0.02 0.04
0.00 0.00 0.00 0.00 0.00 0.00 0.00 0.00 0.00 0.00 0.00 0.00 0.00 0.02 0.01 0.01 0.01 0.03 0.04 0.04 0.05 0.06
0.00 0.00 0.00 0.00 0.00 0.00 0.00 0.00 0.01 0.01 0.01 0.01 0.02 0.05 0.03 0.03 0.02 0.04 0.05 0.06 0.07 0.09
0.00 0.00 0.00 0.00 0.00 0.01 0.01 0.02 0.02 0.02 0.03 0.03 0.04 0.07 0.05 0.03 0.01 0.04 0.08 0.11 0.15 0.16
0.06 0.01 0.00 0.00 0.00 0.01 0.02 0.02 0.03 0.04 0.05 0.06 0.03 0.07 0.05 0.04 0.01 0.05 0.10 0.14 0.23 0.28
0.08 0.06 0.02 0.00 0.02 0.02 0.04 0.03 0.04 0.05 0.03 0.03 0.05 0.10 0.09 0.07 0.02 0.04 0.08 0.14 0.16 0.15

GFSNIL_prec_precacc6_114.txt.gz
Total_Precipitation_Accumulation
0.00 0.00 0.00 0.00 0.01 0.07 0.13 0.44 0.45 0.26 0.14 0.10 0.11 0.12 0.13 0.15 0.16 0.15 0.16 0.20 0.11 0.06
0.00 0.00 0.00 0.00 0.00 0.07 0.19 0.31 0.43 0.49 0.40 0.28 0.21 0.26 0.31 0.34 0.38 0.35 0.34 0.35 0.32 0.21
0.00 0.00 0.00 0.00 0.00 0.02 0.09 0.24 0.40 0.47 0.60 0.54 0.40 0.43 0.50 0.52 0.47 0.51 0.52 0.46 0.42 0.34
0.00 0.00 0.00 0.00 0.00 0.01 0.02 0.12 0.31 0.52 0.58 0.64 0.49 0.49 0.63 0.59 0.47 0.40 0.45 0.47 0.35 0.23
0.00 0.01 0.00 0.00 0.00 0.00 0.00 0.03 0.14 0.38 0.64 0.68 0.68 0.51 0.48 0.50 0.46 0.39 0.28 0.23 0.26 0.23
0.00 0.01 0.01 0.00 0.00 0.00 0.00 0.00 0.03 0.06 0.22 0.45 0.45 0.57 0.46 0.37 0.30 0.27 0.21 0.20 0.13 0.09
0.01 0.01 0.01 0.00 0.00 0.00 0.00 0.00 0.01 0.01 0.02 0.11 0.19 0.29 0.43 0.29 0.23 0.16 0.06 0.04 0.04 0.01
0.01 0.01 0.01 0.00 0.00 0.00 0.00 0.00 0.00 0.00 0.01 0.03 0.05 0.16 0.18 0.14 0.05 0.05 0.02 0.01 0.01 0.00
0.01 0.01 0.01 0.01 0.00 0.00 0.00 0.00 0.00 0.00 0.00 0.01 0.02 0.07 0.08 0.06 0.01 0.02 0.00 0.01 0.01 0.01
0.00 0.00 0.00 0.01 0.01 0.00 0.01 0.01 0.01 0.00 0.00 0.00 0.01 0.03 0.02 0.02 0.01 0.01 0.02 0.02 0.02 0.02
0.00 0.00 0.00 0.00 0.00 0.00 0.01 0.01 0.01 0.01 0.02 0.01 0.01 0.03 0.01 0.02 0.01 0.02 0.02 0.03 0.04 0.05
0.00 0.00 0.00 0.00 0.00 0.00 0.01 0.02 0.01 0.01 0.01 0.01 0.01 0.05 0.04 0.02 0.01 0.03 0.04 0.05 0.06 0.06
0.06 0.01 0.00 0.00 0.00 0.01 0.01 0.01 0.02 0.02 0.03 0.04 0.02 0.06 0.06 0.04 0.01 0.02 0.04 0.06 0.13 0.18
0.08 0.06 0.01 0.00 0.00 0.01 0.02 0.02 0.02 0.03 0.02 0.03 0.04 0.06 0.07 0.07 0.02 0.02 0.06 0.09 0.13 0.21

GFSNIL_prec_precacc6_117.txt.gz
Total_Precipitation_Accumulation
0.00 0.00 0.00 0.00 0.00 0.00 0.05 0.11 0.14 0.06 0.04 0.06 0.06 0.02 0.02 0.01 0.00 0.01 0.02 0.04 0.03 0.02
0.00 0.00 0.00 0.00 0.00 0.00 0.02 0.10 0.23 0.27 0.22 0.14 0.08 0.07 0.07 0.08 0.05 0.06 0.10 0.15 0.17 0.12
0.00 0.00 0.00 0.00 0.00 0.00 0.01 0.08 0.17 0.29 0.59 0.60 0.26 0.18 0.24 0.29 0.20 0.21 0.29 0.34 0.39 0.38
0.00 0.00 0.00 0.00 0.00 0.00 0.00 0.01 0.08 0.26 0.52 0.85 0.62 0.46 0.45 0.43 0.37 0.29 0.32 0.45 0.47 0.43
0.01 0.01 0.00 0.00 0.00 0.00 0.00 0.01 0.04 0.20 0.49 0.62 0.66 0.52 0.62 0.62 0.54 0.52 0.37 0.28 0.35 0.37
0.01 0.01 0.01 0.00 0.00 0.00 0.00 0.01 0.03 0.06 0.28 0.53 0.49 0.60 0.69 0.66 0.64 0.69 0.58 0.39 0.25 0.21
0.01 0.01 0.01 0.00 0.00 0.00 0.00 0.01 0.01 0.02 0.04 0.25 0.46 0.54 0.73 0.73 0.79 0.73 0.52 0.33 0.23 0.15
0.01 0.01 0.02 0.01 0.00 0.00 0.00 0.00 0.01 0.01 0.01 0.04 0.18 0.48 0.48 0.57 0.41 0.39 0.30 0.14 0.08 0.11
0.01 0.01 0.02 0.02 0.01 0.01 0.01 0.01 0.00 0.00 0.01 0.03 0.06 0.22 0.31 0.41 0.27 0.17 0.19 0.13 0.04 0.03
0.00 0.01 0.01 0.02 0.02 0.02 0.03 0.03 0.02 0.02 0.01 0.01 0.05 0.12 0.16 0.27 0.17 0.07 0.14 0.11 0.05 0.04
0.00 0.00 0.00 0.02 0.02 0.02 0.03 0.03 0.03 0.03 0.04 0.01 0.03 0.05 0.06 0.07 0.05 0.04 0.02 0.03 0.01 0.01
0.00 0.00 0.00 0.01 0.02 0.02 0.02 0.04 0.03 0.02 0.03 0.01 0.01 0.07 0.06 0.03 0.01 0.02 0.03 0.03 0.04 0.03
0.00 0.00 0.00 0.00 0.01 0.02 0.01 0.02 0.04 0.03 0.03 0.04 0.02 0.05 0.08 0.06 0.03 0.05 0.05 0.05 0.09 0.11
0.02 0.00 0.00 0.00 0.00 0.02 0.02 0.02 0.03 0.03 0.03 0.04 0.03 0.04 0.06 0.07 0.01 0.02 0.03 0.05 0.07 0.15

GFSNIL_prec_precacc6_123.txt.gz
Total_Precipitation_Accumulation
0.02 0.02 0.00 0.00 0.01 0.01 0.01 0.02 0.01 0.00 0.01 0.16 0.40 0.44 0.36 0.24 0.22 0.09 0.05 0.02 0.01 0.00
0.07 0.02 0.00 0.01 0.01 0.02 0.01 0.07 0.06 0.01 0.00 0.01 0.15 0.43 0.39 0.26 0.21 0.13 0.07 0.05 0.02 0.00
0.06 0.03 0.00 0.01 0.01 0.02 0.02 0.04 0.07 0.12 0.09 0.01 0.01 0.09 0.34 0.28 0.16 0.10 0.05 0.03 0.01 0.00
0.15 0.12 0.04 0.01 0.01 0.01 0.02 0.02 0.04 0.10 0.21 0.32 0.22 0.08 0.04 0.17 0.17 0.08 0.02 0.01 0.01 0.00
0.12 0.05 0.01 0.01 0.01 0.01 0.01 0.02 0.01 0.02 0.11 0.31 0.65 0.64 0.25 0.09 0.12 0.09 0.03 0.01 0.01 0.02
0.06 0.01 0.01 0.01 0.01 0.01 0.01 0.01 0.01 0.02 0.03 0.07 0.31 0.64 0.56 0.32 0.16 0.12 0.12 0.09 0.06 0.07
0.06 0.02 0.03 0.01 0.01 0.01 0.00 0.00 0.00 0.00 0.01 0.03 0.12 0.33 0.39 0.46 0.43 0.29 0.35 0.41 0.39 0.29
0.05 0.03 0.02 0.02 0.01 0.01 0.01 0.01 0.00 0.00 0.00 0.02 0.08 0.22 0.32 0.39 0.54 0.72 0.70 0.70 0.66 0.57
0.07 0.05 0.02 0.02 0.01 0.01 0.01 0.01 0.00 0.00 0.00 0.00 0.01 0.16 0.30 0.40 0.53 0.69 0.73 0.61 0.51 0.45
0.07 0.04 0.03 0.02 0.01 0.01 0.01 0.00 0.00 0.00 0.00 0.00 0.01 0.03 0.12 0.32 0.38 0.44 0.52 0.64 0.55 0.42
0.06 0.04 0.03 0.02 0.01 0.00 0.00 0.00 0.00 0.00 0.00 0.00 0.02 0.03 0.04 0.12 0.33 0.25 0.32 0.37 0.42 0.37
0.08 0.03 0.02 0.01 0.00 0.00 0.00 0.00 0.00 0.00 0.01 0.00 0.01 0.05 0.04 0.04 0.11 0.15 0.19 0.15 0.21 0.24
0.10 0.03 0.00 0.00 0.00 0.00 0.01 0.01 0.01 0.00 0.00 0.02 0.00 0.04 0.05 0.02 0.01 0.03 0.05 0.07 0.11 0.14
0.12 0.03 0.00 0.01 0.01 0.00 0.01 0.00 0.01 0.01 0.00 0.01 0.02 0.02 0.05 0.04 0.00 0.01 0.01 0.02 0.03 0.04

GFSNIL_prec_precacc6_126.txt.gz
Total_Precipitation_Accumulation
0.02 0.02 0.02 0.03 0.01 0.01 0.01 0.00 0.00 0.00 0.00 0.02 0.11 0.26 0.32 0.31 0.41 0.28 0.16 0.09 0.05 0.02
0.05 0.03 0.02 0.01 0.01 0.01 0.01 0.01 0.00 0.00 0.00 0.00 0.05 0.25 0.36 0.35 0.40 0.35 0.26 0.15 0.08 0.04
0.05 0.04 0.02 0.02 0.02 0.02 0.02 0.01 0.01 0.03 0.01 0.00 0.01 0.05 0.29 0.39 0.44 0.37 0.28 0.21 0.15 0.09
0.09 0.10 0.04 0.03 0.02 0.02 0.02 0.02 0.01 0.02 0.05 0.08 0.05 0.01 0.04 0.20 0.37 0.36 0.26 0.29 0.24 0.11
0.07 0.05 0.03 0.02 0.03 0.03 0.02 0.02 0.02 0.01 0.05 0.08 0.12 0.23 0.13 0.06 0.17 0.26 0.22 0.19 0.22 0.15
0.03 0.02 0.04 0.03 0.03 0.02 0.02 0.02 0.03 0.02 0.03 0.04 0.08 0.16 0.24 0.18 0.09 0.12 0.18 0.16 0.14 0.11
0.05 0.04 0.05 0.04 0.02 0.02 0.02 0.01 0.02 0.02 0.02 0.02 0.01 0.07 0.17 0.25 0.24 0.11 0.11 0.18 0.16 0.11
0.05 0.05 0.07 0.05 0.03 0.03 0.03 0.01 0.01 0.01 0.01 0.01 0.02 0.04 0.06 0.11 0.22 0.29 0.28 0.30 0.34 0.29
0.08 0.08 0.08 0.07 0.04 0.02 0.03 0.01 0.00 0.00 0.00 0.00 0.00 0.03 0.13 0.21 0.28 0.37 0.51 0.42 0.36 0.37
0.08 0.09 0.08 0.07 0.04 0.03 0.02 0.01 0.00 0.00 0.00 0.00 0.00 0.02 0.06 0.17 0.21 0.38 0.55 0.53 0.56 0.50
0.07 0.07 0.10 0.09 0.03 0.02 0.01 0.00 0.00 0.00 0.00 0.00 0.01 0.02 0.02 0.02 0.09 0.22 0.41 0.49 0.53 0.58
0.10 0.09 0.14 0.16 0.03 0.01 0.01 0.01 0.00 0.00 0.00 0.00 0.00 0.03 0.01 0.01 0.02 0.08 0.17 0.28 0.40 0.47
0.17 0.16 0.19 0.16 0.04 0.01 0.01 0.01 0.01 0.01 0.00 0.01 0.00 0.02 0.04 0.02 0.00 0.02 0.04 0.06 0.14 0.26
0.20 0.24 0.21 0.13 0.03 0.01 0.01 0.02 0.02 0.01 0.01 0.00 0.01 0.02 0.04 0.04 0.00 0.00 0.01 0.01 0.02 0.05

GFSNIL_prec_precacc6_132.txt.gz
Total_Precipitation_Accumulation
0.00 0.02 0.03 0.05 0.04 0.02 0.01 0.00 0.01 0.02 0.03 0.04 0.12 0.08 0.05 0.03 0.03 0.13 0.18 0.25 0.23 0.17
0.00 0.01 0.02 0.04 0.06 0.05 0.03 0.02 0.02 0.01 0.02 0.02 0.08 0.04 0.04 0.02 0.02 0.10 0.21 0.26 0.29 0.21
0.00 0.00 0.01 0.03 0.05 0.06 0.04 0.03 0.04 0.02 0.01 0.04 0.06 0.05 0.03 0.02 0.02 0.08 0.16 0.38 0.45 0.37
0.00 0.00 0.01 0.04 0.06 0.08 0.08 0.09 0.08 0.04 0.01 0.02 0.04 0.04 0.02 0.01 0.01 0.06 0.13 0.21 0.34 0.43
0.00 0.01 0.01 0.02 0.06 0.07 0.09 0.10 0.13 0.10 0.02 0.01 0.01 0.00 0.01 0.01 0.01 0.02 0.07 0.19 0.32 0.34
0.00 0.01 0.01 0.01 0.04 0.08 0.13 0.16 0.13 0.11 0.05 0.01 0.01 0.00 0.00 0.00 0.00 0.00 0.02 0.07 0.20 0.36
0.00 0.01 0.01 0.01 0.03 0.07 0.14 0.18 0.15 0.10 0.08 0.05 0.01 0.00 0.00 0.00 0.00 0.00 0.00 0.02 0.08 0.18
0.00 0.00 0.02 0.03 0.04 0.04 0.12 0.18 0.16 0.15 0.14 0.07 0.03 0.01 0.00 0.00 0.00 0.00 0.00 0.00 0.01 0.07
0.00 0.00 0.01 0.02 0.04 0.04 0.08 0.15 0.22 0.11 0.08 0.07 0.06 0.05 0.01 0.00 0.00 0.00 0.00 0.01 0.04 0.11
0.00 0.00 0.01 0.02 0.06 0.07 0.07 0.07 0.14 0.28 0.19 0.03 0.02 0.05 0.03 0.04 0.02 0.02 0.03 0.04 0.15 0.29
0.00 0.00 0.01 0.06 0.11 0.13 0.11 0.07 0.06 0.09 0.27 0.18 0.01 0.03 0.03 0.05 0.01 0.01 0.03 0.09 0.13 0.30
0.00 0.00 0.00 0.06 0.22 0.18 0.14 0.16 0.09 0.04 0.02 0.01 0.01 0.02 0.03 0.04 0.02 0.03 0.03 0.04 0.08 0.23
0.00 0.00 0.01 0.05 0.12 0.13 0.18 0.13 0.21 0.26 0.09 0.02 0.01 0.01 0.02 0.03 0.01 0.02 0.02 0.02 0.05 0.19
0.00 0.00 0.02 0.05 0.13 0.16 0.16 0.22 0.18 0.19 0.26 0.13 0.01 0.01 0.01 0.02 0.01 0.01 0.01 0.01 0.00 0.02

GFSNIL_prec_precacc6_135.txt.gz
Total_Precipitation_Accumulation
0.00 0.00 0.01 0.03 0.02 0.02 0.02 0.03 0.07 0.10 0.09 0.08 0.14 0.13 0.11 0.08 0.04 0.04 0.05 0.03 0.05 0.12
0.00 0.00 0.00 0.01 0.03 0.03 0.03 0.02 0.01 0.03 0.03 0.04 0.10 0.06 0.09 0.06 0.06 0.07 0.06 0.03 0.04 0.14
0.00 0.00 0.00 0.00 0.01 0.03 0.03 0.03 0.02 0.02 0.03 0.05 0.07 0.08 0.09 0.05 0.07 0.05 0.06 0.07 0.14 0.26
0.00 0.00 0.00 0.00 0.00 0.03 0.07 0.11 0.06 0.03 0.04 0.04 0.07 0.09 0.07 0.05 0.05 0.04 0.03 0.04 0.14 0.28
0.00 0.00 0.00 0.00 0.00 0.03 0.06 0.10 0.13 0.12 0.07 0.04 0.03 0.02 0.03 0.03 0.03 0.02 0.02 0.02 0.05 0.15
0.00 0.00 0.00 0.00 0.00 0.02 0.05 0.11 0.11 0.12 0.12 0.07 0.03 0.02 0.01 0.01 0.02 0.02 0.01 0.01 0.02 0.08
0.00 0.00 0.00 0.00 0.00 0.00 0.04 0.11 0.11 0.08 0.11 0.11 0.05 0.02 0.01 0.01 0.00 0.01 0.01 0.01 0.00 0.02
0.00 0.00 0.00 0.00 0.00 0.00 0.01 0.08 0.11 0.12 0.12 0.10 0.07 0.05 0.01 0.00 0.00 0.00 0.00 0.00 0.00 0.00
0.00 0.00 0.00 0.00 0.00 0.00 0.01 0.09 0.19 0.10 0.09 0.07 0.05 0.05 0.04 0.01 0.00 0.00 0.00 0.00 0.00 0.01
0.00 0.00 0.00 0.00 0.00 0.00 0.01 0.03 0.12 0.27 0.21 0.07 0.11 0.15 0.07 0.03 0.00 0.00 0.00 0.00 0.00 0.01
0.00 0.00 0.00 0.00 0.01 0.02 0.01 0.04 0.05 0.08 0.29 0.58 0.32 0.14 0.22 0.14 0.01 0.00 0.00 0.01 0.02 0.03
0.00 0.00 0.00 0.00 0.00 0.06 0.05 0.12 0.08 0.03 0.04 0.16 0.41 0.37 0.14 0.09 0.02 0.02 0.01 0.02 0.02 0.05
0.00 0.00 0.00 0.00 0.00 0.01 0.06 0.08 0.19 0.25 0.10 0.10 0.09 0.20 0.20 0.07 0.01 0.02 0.02 0.01 0.03 0.06
0.00 0.00 0.00 0.00 0.00 0.00 0.02 0.17 0.16 0.16 0.32 0.30 0.14 0.09 0.14 0.18 0.02 0.00 0.01 0.01 0.01 0.01

GFSNIL_prec_precacc6_138.txt.gz
Total_Precipitation_Accumulation
0.00 0.00 0.00 0.00 0.00 0.01 0.02 0.05 0.09 0.13 0.12 0.11 0.08 0.10 0.10 0.09 0.05 0.06 0.10 0.06 0.05 0.02
0.00 0.00 0.00 0.00 0.00 0.00 0.00 0.01 0.02 0.06 0.06 0.07 0.08 0.08 0.11 0.08 0.06 0.07 0.06 0.06 0.04 0.04
0.00 0.00 0.00 0.00 0.00 0.00 0.00 0.01 0.01 0.02 0.04 0.04 0.04 0.05 0.10 0.05 0.07 0.06 0.06 0.06 0.03 0.03
0.00 0.00 0.00 0.00 0.00 0.00 0.00 0.02 0.02 0.02 0.05 0.05 0.07 0.08 0.06 0.05 0.05 0.04 0.05 0.06 0.03 0.04
0.00 0.00 0.00 0.00 0.00 0.00 0.00 0.01 0.04 0.07 0.06 0.04 0.05 0.08 0.06 0.04 0.03 0.03 0.04 0.04 0.06 0.04
0.00 0.00 0.00 0.00 0.00 0.00 0.00 0.00 0.01 0.05 0.09 0.07 0.05 0.06 0.05 0.04 0.04 0.05 0.04 0.04 0.04 0.04
0.00 0.00 0.00 0.00 0.00 0.00 0.00 0.00 0.01 0.02 0.07 0.07 0.05 0.07 0.06 0.04 0.02 0.01 0.02 0.03 0.04 0.04
0.00 0.00 0.00 0.00 0.00 0.00 0.00 0.00 0.00 0.02 0.03 0.04 0.05 0.06 0.06 0.04 0.03 0.01 0.00 0.00 0.01 0.01
0.00 0.00 0.00 0.00 0.00 0.00 0.00 0.00 0.00 0.01 0.03 0.05 0.04 0.05 0.06 0.07 0.07 0.05 0.01 0.00 0.00 0.00
0.00 0.00 0.00 0.00 0.00 0.00 0.00 0.00 0.00 0.00 0.02 0.04 0.10 0.14 0.08 0.10 0.10 0.08 0.05 0.00 0.00 0.00
0.00 0.00 0.00 0.00 0.00 0.00 0.00 0.00 0.00 0.00 0.02 0.40 0.32 0.15 0.25 0.33 0.18 0.11 0.07 0.03 0.00 0.00
0.00 0.00 0.00 0.00 0.00 0.00 0.00 0.00 0.00 0.00 0.02 0.15 0.41 0.39 0.15 0.18 0.33 0.25 0.15 0.20 0.07 0.01
0.00 0.00 0.00 0.00 0.00 0.00 0.00 0.00 0.00 0.00 0.02 0.10 0.09 0.20 0.21 0.10 0.09 0.17 0.16 0.09 0.06 0.04
0.00 0.00 0.00 0.00 0.00 0.00 0.00 0.00 0.00 0.00 0.07 0.18 0.13 0.09 0.16 0.23 0.10 0.09 0.09 0.04 0.02 0.01

GFSNIL_prec_precacc6_144.txt.gz
Total_Precipitation_Accumulation
0.15 0.15 0.08 0.13 0.08 0.02 0.03 0.09 0.18 0.27 0.30 0.22 0.09 0.05 0.05 0.04 0.04 0.04 0.05 0.05 0.08 0.09
0.11 0.15 0.11 0.06 0.03 0.02 0.01 0.01 0.05 0.06 0.06 0.05 0.07 0.08 0.06 0.04 0.03 0.03 0.03 0.05 0.06 0.05
0.03 0.06 0.06 0.02 0.01 0.01 0.00 0.00 0.00 0.01 0.02 0.03 0.05 0.05 0.08 0.08 0.07 0.07 0.04 0.04 0.05 0.05
0.00 0.00 0.01 0.00 0.00 0.00 0.00 0.00 0.00 0.00 0.00 0.01 0.02 0.03 0.06 0.07 0.07 0.07 0.06 0.07 0.06 0.07
0.00 0.00 0.00 0.00 0.00 0.00 0.00 0.00 0.00 0.00 0.00 0.00 0.01 0.02 0.05 0.08 0.05 0.04 0.05 0.05 0.05 0.04
0.08 0.01 0.00 0.00 0.00 0.00 0.00 0.00 0.00 0.00 0.00 0.00 0.00 0.02 0.03 0.04 0.07 0.06 0.05 0.04 0.04 0.04
0.01 0.01 0.00 0.00 0.00 0.00 0.00 0.00 0.00 0.00 0.00 0.00 0.00 0.00 0.02 0.05 0.08 0.06 0.08 0.08 0.06 0.07
0.00 0.00 0.00 0.00 0.00 0.00 0.00 0.00 0.00 0.00 0.00 0.00 0.00 0.00 0.01 0.01 0.06 0.12 0.19 0.13 0.08 0.07
0.00 0.00 0.00 0.00 0.00 0.00 0.00 0.00 0.00 0.00 0.00 0.00 0.00 0.00 0.02 0.02 0.01 0.05 0.10 0.14 0.13 0.11
0.00 0.00 0.00 0.00 0.00 0.00 0.00 0.00 0.00 0.00 0.00 0.00 0.00 0.00 0.00 0.02 0.01 0.02 0.07 0.12 0.10 0.19
0.00 0.00 0.00 0.00 0.00 0.00 0.00 0.00 0.00 0.00 0.00 0.00 0.00 0.00 0.00 0.00 0.00 0.02 0.04 0.09 0.24 0.35
0.00 0.00 0.00 0.00 0.00 0.00 0.00 0.00 0.00 0.00 0.00 0.00 0.00 0.00 0.00 0.00 0.00 0.02 0.02 0.04 0.15 0.20
0.00 0.00 0.00 0.00 0.00 0.00 0.00 0.00 0.00 0.00 0.00 0.00 0.00 0.00 0.00 0.00 0.00 0.00 0.01 0.01 0.05 0.12
0.00 0.00 0.00 0.00 0.00 0.00 0.00 0.00 0.00 0.00 0.00 0.00 0.00 0.00 0.00 0.00 0.00 0.00 0.01 0.02 0.01 0.03